Theta_e
342 347 345 345 346 347 346 347 346 346 346 346 346 345 345 342 339 341 339 335 337 341 344 345 345 347 348 349 350 347 348 344 345
343 346 346 345 345 347 347 346 346 346 346 346 346 345 345 342 339 338 339 335 337 337 341 343 346 347 348 351 350 348 346 345 341
345 347 347 346 345 346 346 346 346 346 346 346 345 345 344 344 341 339 335 335 335 337 339 344 345 346 349 352 352 351 349 348 344
346 348 348 347 346 346 346 346 346 346 346 346 345 345 344 344 343 340 338 335 333 334 337 340 344 344 351 354 353 353 350 349 348
347 348 348 348 347 345 346 346 346 346 345 346 345 343 344 344 343 342 339 335 332 331 332 337 340 342 346 350 350 352 351 350 350
345 348 348 348 347 346 346 346 346 346 345 345 345 344 343 344 344 344 341 336 333 330 330 332 335 340 348 350 351 352 352 351 350
340 347 348 348 348 346 345 346 346 346 345 345 345 344 343 342 343 342 341 337 334 331 329 331 333 334 338 351 352 352 352 350 347
338 345 347 349 348 346 346 346 346 346 346 345 344 344 344 342 339 340 339 337 335 334 333 332 331 334 335 336 348 352 351 349 348
337 346 348 349 348 347 347 347 348 347 346 346 345 345 344 344 344 342 340 339 337 334 334 334 332 331 332 334 335 339 342 344 345
338 344 348 349 349 348 348 348 348 348 347 346 346 346 346 345 345 345 345 345 343 341 339 337 336 334 333 334 334 336 338 340 342
341 340 343 345 349 349 348 347 347 348 347 347 347 347 347 347 347 347 348 349 351 352 350 349 347 345 341 339 338 338 339 340 342
348 349 345 341 340 346 349 349 349 348 347 347 347 347 347 348 348 349 349 350 351 352 353 354 354 353 352 348 346 345 346 348 348
345 350 348 346 342 340 339 340 349 352 351 350 349 349 348 349 350 350 351 352 353 353 354 354 355 355 354 354 354 353 352 352 352
335 343 351 350 344 342 344 339 338 346 356 353 352 352 351 351 351 352 353 354 354 355 355 356 356 356 356 356 355 355 355 356 356
330 335 340 346 351 349 346 342 338 337 339 344 345 353 356 354 354 355 356 356 356 357 357 358 358 358 357 357 357 357 356 357 357
322 328 332 331 334 348 349 345 339 340 343 339 340 339 338 351 353 352 352 353 354 356 358 359 359 359 359 358 359 358 359 358 359
320 321 324 328 327 330 342 350 352 350 350 347 344 338 336 337 334 338 347 353 353 352 354 357 359 360 361 361 360 360 361 360 360
319 319 319 320 324 323 323 340 350 354 358 360 354 349 346 343 340 338 347 355 354 352 352 354 356 356 359 360 360 360 361 360 360
317 317 317 318 319 321 319 321 334 343 347 349 354 361 359 357 353 348 344 351 358 355 353 352 357 361 361 362 362 361 362 362 362
317 317 317 317 318 323 321 321 319 320 323 330 336 339 345 359 358 359 357 364 361 358 356 355 357 360 359 363 362 363 363 362 362
Wind_Speed
45 47 45 43 50 54 55 59 58 58 56 52 49 45 41 41 40 36 34 32 29 29 27 23 19 22 20 17 16 16 16 16 15
42 52 49 50 50 53 54 60 61 60 58 55 52 48 42 40 41 40 38 35 31 30 27 26 22 22 21 19 17 16 17 18 18
48 50 54 48 50 53 56 62 64 61 59 56 54 50 46 42 41 41 40 37 34 31 30 27 26 23 22 22 22 21 19 18 19
44 49 51 53 53 54 59 60 62 61 59 57 54 51 48 46 43 41 42 41 38 34 31 32 30 29 27 23 22 27 25 23 20
53 51 57 57 55 54 53 55 59 61 59 57 53 47 47 47 43 42 43 43 42 38 35 34 34 31 32 31 27 24 27 25 22
50 49 52 54 54 53 54 58 57 60 58 56 52 48 46 44 44 43 42 42 42 41 39 37 36 36 34 31 30 25 25 25 24
39 53 53 56 53 54 55 59 60 59 58 54 51 48 45 42 41 41 40 38 38 39 39 39 38 37 41 37 34 33 32 29 27
37 43 51 53 53 53 56 56 59 58 56 54 52 48 45 41 38 39 38 38 37 36 37 38 38 38 39 41 44 42 39 37 36
28 41 52 54 54 55 57 59 59 59 56 53 51 50 46 42 41 39 40 39 39 37 37 36 37 37 39 41 43 44 43 41 40
24 28 40 48 54 57 59 59 57 56 55 52 50 47 44 44 43 43 41 39 39 39 37 36 37 37 39 41 42 43 42 42 42
38 37 28 24 33 35 40 44 49 53 49 48 47 47 44 41 41 40 38 37 36 34 35 36 36 35 36 37 38 38 39 39 41
33 38 37 36 33 21 36 35 40 44 42 44 43 45 45 42 41 40 39 39 37 34 34 34 33 34 35 37 37 35 35 35 38
30 30 32 32 31 31 29 20 21 34 36 39 42 43 44 43 42 42 42 39 39 36 37 37 36 36 36 35 36 35 35 34 36
30 29 28 27 25 25 22 20 19 16 25 36 40 42 44 45 44 41 38 40 41 42 42 41 41 39 38 38 37 35 35 34 36
26 27 27 26 25 22 17 14 13 14 13 8 5 13 36 40 41 39 37 37 38 39 40 41 42 41 41 40 38 37 36 35 35
24 24 24 22 22 19 16 11 8 6 3 3 4 5 8 18 22 27 31 32 32 34 36 39 41 42 42 41 39 38 37 34 32
21 22 23 20 19 19 17 12 9 5 2 2 5 7 11 13 17 22 25 29 32 32 34 36 39 41 42 40 38 38 35 31 29
21 21 22 23 20 19 16 11 6 5 4 3 3 9 12 14 18 20 23 28 31 33 32 35 36 37 38 38 37 36 31 27 25
21 20 19 19 19 17 16 11 7 4 6 8 9 12 15 18 20 23 26 27 33 34 34 35 35 33 32 31 28 22 20 20 18
13 18 17 16 18 18 19 16 10 7 9 11 13 18 22 23 22 22 25 26 32 35 34 35 34 29 27 31 24 23 20 18 19
Wind_Direction
204 207 209 206 204 199 201 207 210 211 213 217 221 224 228 230 231 229 227 224 222 223 224 224 225 231 239 244 242 234 235 232 232
202 203 208 209 206 202 201 209 215 217 217 218 220 223 225 229 230 230 229 227 225 224 223 225 229 233 240 239 238 232 233 238 237
200 205 207 209 205 202 203 212 218 219 221 219 221 223 225 227 229 232 232 232 227 223 222 225 224 230 238 245 244 238 234 238 241
204 202 205 206 206 203 205 209 215 220 220 221 222 224 226 227 229 231 233 234 232 228 225 223 227 229 234 235 246 241 237 239 245
201 201 202 201 205 202 200 204 212 218 222 221 222 224 226 228 229 229 231 233 235 234 230 226 227 232 236 241 243 236 236 240 245
196 195 197 196 200 198 200 203 209 215 220 223 223 223 224 228 230 232 232 233 236 237 236 232 230 230 233 236 236 233 233 240 247
175 188 190 193 195 196 199 205 210 215 220 223 223 224 225 227 230 232 235 235 235 238 239 238 235 232 233 235 238 242 243 245 247
167 179 185 187 190 193 199 204 211 217 220 221 222 224 225 226 227 231 235 238 239 237 239 241 240 238 236 236 238 242 245 249 251
163 174 180 184 189 191 198 205 213 216 219 221 222 224 226 228 229 231 233 236 240 242 242 241 241 239 239 240 240 242 246 249 252
130 165 181 184 189 193 201 207 210 215 219 218 221 225 228 230 232 234 236 238 240 241 243 244 243 243 243 243 245 247 250 252 254
89 107 134 170 191 192 199 205 210 216 214 218 221 226 228 231 234 236 237 238 240 242 243 246 248 246 246 248 248 250 251 254 257
78 88 93 96 100 146 200 201 214 220 216 219 223 227 229 233 236 238 239 240 242 244 244 247 250 254 254 253 255 256 257 255 256
67 82 95 98 103 104 104 106 198 216 223 228 230 234 238 237 239 243 243 245 247 249 249 251 254 256 260 263 263 262 261 260 260
64 65 75 90 105 104 97 102 96 101 211 226 235 237 240 244 244 246 253 255 253 251 251 253 254 257 260 262 264 266 267 265 261
53 58 65 71 84 91 96 105 109 104 110 126 183 238 244 247 248 250 251 253 255 254 252 252 254 255 259 262 264 266 267 266 265
35 41 46 54 63 77 88 94 109 111 79 203 215 234 227 235 240 244 250 254 254 253 253 252 253 254 257 261 264 266 267 270 270
15 23 26 31 44 56 60 77 91 92 31 305 263 273 269 263 249 244 247 250 252 254 253 251 251 255 256 260 264 266 267 269 271
356 2 8 9 13 20 25 40 67 63 51 21 305 270 271 273 272 264 250 246 249 251 254 256 256 256 259 262 266 270 276 274 269
341 339 342 347 345 347 356 3 17 12 345 332 310 290 283 279 274 273 263 251 245 246 250 254 254 257 260 265 270 274 274 264 263
326 324 326 333 334 333 333 329 330 329 327 320 306 299 278 273 270 268 259 252 246 243 247 252 253 251 255 258 265 261 263 261 260